When you browse on this site, cookies collect data to enhance your experience and personalize the content and advertising you see.
Visit our Privacy Policy to learn more. By continuing to use the site, you agree to this use of cookies and data.
  • In Lithuania
  • List of Countries
  • For 7 days
  • Water Temperature
  • Satellite Maps
  • Weather Map
  • Weather Widgets
  • user-avatar
    Login

    Hourly Weather Elbasan

    Today, 22 February, Friday

    Time Temperature Precipitation Wind Pressure Humidity
    00:00 +9°C° 0 mm 1 mps 740 mmHg 72%
    01:00 +8°C° 0 mm 1 mps 740 mmHg 73%
    02:00 +8°C° 0 mm 1 mps 739 mmHg 74%
    03:00 +8°C° 0 mm 1 mps 739 mmHg 75%
    04:00 +7°C° 0 mm 1 mps 739 mmHg 76%
    05:00 +7°C° 0 mm 1 mps 738 mmHg 77%
    06:00 +7°C° 0 mm 1 mps 738 mmHg 77%
    07:00 +8°C° 0 mm 1 mps 738 mmHg 76%
    08:00 +9°C° 0 mm 1 mps 738 mmHg 70%
    09:00 +10°C° 0 mm 1 mps 737 mmHg 64%
    10:00 +12°C° 0 mm 1 mps 737 mmHg 58%
    11:00 +12°C° 0.2 mm 1 mps 736 mmHg 58%
    12:00 +12°C° 0.2 mm 1 mps 736 mmHg 59%
    13:00 +12°C° 0.2 mm 1 mps 735 mmHg 59%
    14:00 +12°C° 0.1 mm 2 mps 735 mmHg 60%
    15:00 +12°C° 0.1 mm 2 mps 735 mmHg 60%
    16:00 +12°C° 0.1 mm 2 mps 734 mmHg 60%
    17:00 +11°C° 0 mm 1 mps 734 mmHg 65%
    18:00 +10°C° 0 mm 1 mps 734 mmHg 70%
    19:00 +9°C° 0 mm 1 mps 734 mmHg 75%
    20:00 +8°C° 0 mm 1 mps 734 mmHg 74%
    21:00 +8°C° 0 mm 1 mps 733 mmHg 74%
    22:00 +8°C° 0 mm 1 mps 733 mmHg 74%
    23:00 +8°C° 0 mm 1 mps 733 mmHg 74%

    Tomorrow, 23 February, Saturday

    Time Temperature Precipitation Wind Pressure Humidity
    00:00 +8°C° 0 mm 1 mps 733 mmHg 75%
    01:00 +7°C° 0 mm 1 mps 733 mmHg 75%
    02:00 +6°C° 0.7 mm 2 mps 733 mmHg 76%
    03:00 +5°C° 0.7 mm 3 mps 733 mmHg 77%
    04:00 +5°C° 0.7 mm 4 mps 733 mmHg 78%
    05:00 +2°C° 0.4 mm 5 mps 733 mmHg 72%
    06:00 +1°C° 0.4 mm 6 mps 733 mmHg 65%
    07:00 -1°C° 0.4 mm 7 mps 733 mmHg 58%
    08:00 -1°C° 0.1 mm 7 mps 733 mmHg 59%
    09:00 -1°C° 0.1 mm 8 mps 734 mmHg 59%
    10:00 -1°C° 0.1 mm 8 mps 734 mmHg 59%
    11:00 0°C° 0 mm 8 mps 735 mmHg 58%
    12:00 +1°C° 0 mm 8 mps 735 mmHg 57%
    13:00 +2°C° 0 mm 8 mps 736 mmHg 55%
    14:00 +1°C° 0 mm 8 mps 736 mmHg 55%
    15:00 +1°C° 0 mm 8 mps 737 mmHg 56%
    16:00 +2°C° 0 mm 7 mps 737 mmHg 56%
    17:00 0°C° 0 mm 7 mps 738 mmHg 57%
    18:00 -1°C° 0 mm 7 mps 739 mmHg 57%
    19:00 -1°C° 0 mm 7 mps 739 mmHg 58%
    20:00 -2°C° 0 mm 7 mps 740 mmHg 58%
    21:00 -2°C° 0 mm 7 mps 740 mmHg 58%
    22:00 -3°C° 0 mm 7 mps 741 mmHg 58%
    23:00 -3°C° 0 mm 7 mps 741 mmHg 58%

    Day after tomorrow, 24 February, Sunday

    Time Temperature Precipitation Wind Pressure Humidity
    00:00 -3°C° 0 mm 6 mps 741 mmHg 58%
    01:00 -3°C° 0 mm 6 mps 741 mmHg 58%
    02:00 -3°C° 0 mm 6 mps 741 mmHg 58%
    03:00 -3°C° 0 mm 6 mps 741 mmHg 57%
    04:00 -3°C° 0 mm 6 mps 741 mmHg 57%
    05:00 -3°C° 0 mm 6 mps 742 mmHg 57%
    06:00 -3°C° 0 mm 6 mps 742 mmHg 57%
    07:00 -2°C° 0 mm 5 mps 742 mmHg 57%
    08:00 -2°C° 0 mm 6 mps 742 mmHg 54%
    09:00 +1°C° 0 mm 6 mps 743 mmHg 51%
    10:00 +3°C° 0 mm 6 mps 743 mmHg 48%
    11:00 +4°C° 0 mm 6 mps 743 mmHg 47%
    12:00 +5°C° 0 mm 6 mps 743 mmHg 46%
    13:00 +7°C° 0 mm 5 mps 743 mmHg 46%
    14:00 +6°C° 0 mm 5 mps 743 mmHg 47%
    15:00 +6°C° 0 mm 5 mps 742 mmHg 49%
    16:00 +6°C° 0 mm 5 mps 742 mmHg 50%
    17:00 +3°C° 0 mm 5 mps 743 mmHg 53%
    18:00 +2°C° 0 mm 5 mps 743 mmHg 56%
    19:00 +1°C° 0 mm 4 mps 743 mmHg 59%
    20:00 +1°C° 0 mm 4 mps 744 mmHg 59%
    21:00 0°C° 0 mm 4 mps 744 mmHg 59%
    22:00 0°C° 0 mm 4 mps 744 mmHg 59%
    23:00 0°C° 0 mm 4 mps 744 mmHg 59%

    25 February, Monday

    Time Temperature Precipitation Wind Pressure Humidity
    00:00 0°C° 0 mm 4 mps 744 mmHg 59%
    01:00 -1°C° 0 mm 4 mps 744 mmHg 59%
    02:00 -1°C° 0 mm 4 mps 744 mmHg 59%
    03:00 -1°C° 0 mm 4 mps 744 mmHg 59%
    04:00 -1°C° 0 mm 4 mps 744 mmHg 59%
    05:00 -1°C° 0 mm 4 mps 744 mmHg 57%
    06:00 -1°C° 0 mm 4 mps 744 mmHg 55%
    07:00 -1°C° 0 mm 4 mps 744 mmHg 53%
    08:00 +1°C° 0 mm 5 mps 744 mmHg 47%
    09:00 +3°C° 0 mm 5 mps 744 mmHg 40%
    10:00 +6°C° 0 mm 5 mps 744 mmHg 34%
    11:00 +7°C° 0 mm 5 mps 743 mmHg 32%
    12:00 +7°C° 0 mm 5 mps 743 mmHg 30%
    13:00 +8°C° 0 mm 5 mps 742 mmHg 28%
    14:00 +8°C° 0 mm 4 mps 742 mmHg 30%
    15:00 +8°C° 0 mm 4 mps 742 mmHg 31%
    16:00 +8°C° 0 mm 4 mps 741 mmHg 32%
    17:00 +6°C° 0 mm 4 mps 741 mmHg 37%
    18:00 +5°C° 0 mm 4 mps 741 mmHg 43%
    19:00 +3°C° 0 mm 4 mps 742 mmHg 48%
    20:00 +3°C° 0 mm 4 mps 742 mmHg 50%
    21:00 +1°C° 0 mm 4 mps 742 mmHg 52%
    22:00 +2°C° 0 mm 3 mps 742 mmHg 54%
    23:00 +2°C° 0 mm 3 mps 742 mmHg 56%

    26 February, Tuesday

    Time Temperature Precipitation Wind Pressure Humidity
    00:00 +2°C° 0 mm 3 mps 741 mmHg 57%
    01:00 +1°C° 0 mm 3 mps 741 mmHg 58%
    02:00 +1°C° 0 mm 3 mps 741 mmHg 58%
    03:00 +1°C° 0 mm 3 mps 741 mmHg 58%
    04:00 +1°C° 0 mm 3 mps 741 mmHg 58%
    05:00 +1°C° 0 mm 3 mps 741 mmHg 56%
    06:00 +2°C° 0 mm 3 mps 741 mmHg 54%
    07:00 +2°C° 0 mm 3 mps 741 mmHg 52%
    08:00 +4°C° 0 mm 3 mps 741 mmHg 47%
    09:00 +8°C° 0 mm 3 mps 741 mmHg 42%
    10:00 +10°C° 0 mm 3 mps 741 mmHg 36%
    11:00 +12°C° 0 mm 3 mps 741 mmHg 35%
    12:00 +14°C° 0 mm 2 mps 740 mmHg 34%
    13:00 +15°C° 0 mm 2 mps 740 mmHg 32%
    14:00 +15°C° 0 mm 2 mps 739 mmHg 35%
    15:00 +15°C° 0 mm 2 mps 739 mmHg 37%
    16:00 +15°C° 0 mm 1 mps 739 mmHg 40%
    17:00 +13°C° 0 mm 1 mps 739 mmHg 44%
    18:00 +10°C° 0 mm 2 mps 739 mmHg 49%
    19:00 +8°C° 0 mm 2 mps 739 mmHg 54%
    20:00 +8°C° 0 mm 2 mps 738 mmHg 55%
    21:00 +7°C° 0 mm 2 mps 738 mmHg 56%
    22:00 +7°C° 0 mm 2 mps 738 mmHg 56%
    23:00 +7°C° 0 mm 2 mps 737 mmHg 56%

    27 February, Wednesday

    Time Temperature Precipitation Wind Pressure Humidity
    00:00 +6°C° 0 mm 2 mps 737 mmHg 56%
    01:00 +7°C° 0 mm 1 mps 736 mmHg 56%
    02:00 +6°C° 0 mm 2 mps 736 mmHg 55%
    03:00 +6°C° 0 mm 2 mps 735 mmHg 54%
    04:00 +6°C° 0 mm 2 mps 735 mmHg 53%
    05:00 +6°C° 0 mm 2 mps 735 mmHg 54%
    06:00 +6°C° 0 mm 2 mps 735 mmHg 55%
    07:00 +6°C° 0 mm 2 mps 735 mmHg 55%
    08:00 +8°C° 0 mm 2 mps 735 mmHg 49%
    09:00 +12°C° 0 mm 2 mps 735 mmHg 42%
    10:00 +14°C° 0 mm 2 mps 735 mmHg 35%
    11:00 +13°C° 0 mm 3 mps 735 mmHg 32%
    12:00 +14°C° 0 mm 4 mps 735 mmHg 29%
    13:00 +14°C° 0 mm 4 mps 735 mmHg 26%
    14:00 +13°C° 0 mm 4 mps 735 mmHg 29%
    15:00 +13°C° 0 mm 4 mps 735 mmHg 31%
    16:00 +12°C° 0 mm 4 mps 735 mmHg 33%
    17:00 +10°C° 0 mm 4 mps 735 mmHg 40%
    18:00 +8°C° 0 mm 3 mps 736 mmHg 46%
    19:00 +7°C° 0 mm 3 mps 736 mmHg 52%
    20:00 +5°C° 0 mm 3 mps 737 mmHg 55%
    21:00 +5°C° 0 mm 3 mps 737 mmHg 58%
    22:00 +4°C° 0 mm 3 mps 737 mmHg 60%
    23:00 +5°C° 0 mm 2 mps 737 mmHg 61%
    Show more